Location: Vancouver
(49.2500°N, 123.1333°W)
Time: 00:34:43
(UTC-07:00)

Daily predictions for brighter satellites

Satellite Brightness Start Highest point End
(mag) Time Altitude Azimuth Time Altitude Azimuth Time Altitude Azimuth
Cosmos 2219 Rocket 4.3 00:40:09 10° NNW 00:43:06 22° NNE 00:43:06 22° NNE
Cosmos 2082 Rocket 4.2 00:52:31 24° NNW 00:52:31 24° NNW 00:55:46 10° NNE
Cosmos 2360 Rocket 4.4 01:14:49 10° NNW 01:16:18 19° NNW 01:16:18 19° NNW
USA 215 4.3 01:14:36 10° ENE 01:18:46 38° NE 01:18:46 38° NE
ATLAS 5 CENTAUR R/B 4.3 01:27:29 20° NNE 01:27:29 20° NNE 01:29:29 10° NE
Cosmos 2333 Rocket 4.1 01:24:55 10° NNW 01:27:35 25° N 01:27:35 25° N
SL-16 R/B 4.1 01:58:55 10° NNW 02:03:36 26° NE 02:03:50 25° NE
SL-16 R/B 3.7 02:15:01 36° ENE 02:15:01 36° ENE 02:20:28 10° N
Cosmos 2237 Rocket 4.0 02:11:05 10° NNW 02:13:34 26° NNW 02:13:34 26° NNW
ADEOS Rocket 4.0 02:17:23 10° NNE 02:21:51 44° NE 02:21:51 44° NE
Cosmos 2219 Rocket 4.4 02:23:42 10° NNW 02:24:47 16° NNW 02:24:47 16° NNW
Cosmos 2227 Rocket 4.0 02:31:57 25° ENE 02:31:57 25° ENE 02:35:00 10° NE
BREEZE-M DEB (TANK) 4.4 02:43:02 77° W 02:43:50 86° SSW 03:15:15 10° ESE
USA 215 4.1 02:57:09 10° ENE 03:03:19 46° N 03:06:05 30° NW
ARIANE 5 R/B 3.9 03:02:24 10° NNE 03:06:19 32° ENE 03:06:19 32° ENE
Cosmos 1092 Rocket 4.5 03:03:04 10° N 03:09:19 55° ENE 03:09:46 54° E
ATLAS 5 CENTAUR R/B 4.3 03:09:01 15° NNW 03:11:01 19° N 03:14:57 10° NE
Resurs 1-4 Rocket 3.1 03:06:04 10° NNE 03:10:17 42° ENE 03:10:17 42° ENE
Cosmos 2297 Rocket 3.0 03:14:32 46° ENE 03:14:32 46° ENE 03:19:03 10° NE
Lacrosse 5 rocket 4.0 03:17:51 16° ENE 03:17:51 16° ENE 03:18:42 10° ENE
Cosmos 2034 Rocket 4.2 03:17:30 68° NNE 03:17:30 68° NNE 03:22:51 10° N
Exosat Rocket 4.4 03:17:51 75° SSE 03:18:22 79° ESE 03:28:02 10° NNE
CZ-4C R/B 3.0 03:23:01 43° E 03:23:01 43° E 03:27:59 10° NE
Cosmos 2251 Rocket 4.5 03:32:28 41° N 03:32:28 41° N 03:36:10 10° NNE
CZ-2D R/B 2.5 03:28:02 10° NNE 03:32:30 58° ENE 03:32:30 58° ENE
SL-16 R/B 3.3 03:42:39 10° NNW 03:45:37 32° NW 03:45:37 32° NW
ADEOS 3.8 03:44:08 10° NNE 03:49:20 63° ESE 03:49:24 63° ESE
Cosmos 44 Rocket 3.9 03:53:25 50° E 03:53:25 50° E 03:57:20 10° NE
Gbstr 26 Del rocket 4.5 03:51:46 43° WNW 03:54:32 76° N 04:02:43 10° E
Nadezhda 4 Rocket 4.4 03:51:13 10° NNW 03:56:14 47° WNW 03:56:14 47° WNW
Meteor 2-6 Rocket 4.2 03:57:25 75° SSE 03:57:53 83° E 04:03:40 10° NNE
Cosmos 2219 4.3 03:58:18 32° NW 03:58:18 32° NW 04:03:17 10° NNE
Cosmos 44 3.8 03:59:12 48° ENE 03:59:12 48° ENE 04:02:37 10° NE
SL-16 R/B 3.2 04:00:07 39° WNW 04:00:07 39° WNW 04:04:23 10° NNW
Meteor 1-10 Rocket 4.1 03:58:44 83° S 03:58:59 89° E 04:04:42 10° NNE
UNKNOWN OBJECT B 3.9 03:59:38 10° NNE 04:02:38 44° NE 04:02:38 44° NE
Cosmos 1627 Rocket 4.3 04:00:05 10° N 04:06:16 88° W 04:07:53 52° S
NPP 4.5 04:03:35 10° N 04:07:52 37° NW 04:07:52 37° NW
ADEOS Rocket 4.0 04:03:25 10° N 04:08:47 33° WNW 04:08:48 33° WNW
Cosmos 1943 4.5 04:05:39 10° NNW 04:11:03 40° NE 04:16:23 10° ESE
Okean 1-7 4.3 04:15:07 31° NNW 04:15:07 31° NNW 04:17:39 10° N
Cosmos 2227 Rocket 2.4 04:13:47 53° WNW 04:13:57 53° NW 04:19:31 10° NNE
Cosmos 1634 Rocket 3.9 04:13:43 53° SSW 04:15:22 86° W 04:21:45 10° N
Cosmos 405 Rocket 4.3 04:14:32 29° ESE 04:15:24 32° E 04:18:58 10° NNE
Meteor 1-11 Rocket 3.6 04:10:55 10° NNW 04:16:33 79° W 04:17:43 57° S
MOS 1 Rocket 4.0 04:20:56 10° N 04:25:37 45° WNW 04:25:37 45° WNW
Cosmos 967 Rocket 4.5 04:20:13 10° NW 04:26:30 56° WSW 04:32:46 10° SSE
Cosmos 1190 Rocket 4.1 04:27:38 47° S 04:29:06 73° ESE 04:34:24 10° NNE
ISS -1.0 04:32:28 12° SE 04:32:28 12° SE 04:32:42 10° SE
Okean O Rocket 3.9 04:26:23 10° NE 04:29:48 22° E 04:33:12 10° SE
Cosmos 2263 Rocket 4.5 04:26:43 10° SE 04:30:45 20° E 04:34:48 10° NE
CRYOSAT 2 4.2 04:26:11 10° N 04:31:06 80° W 04:31:54 61° SSW
Cosmos 1655 Rocket 3.9 04:25:40 10° N 04:32:03 84° W 04:37:46 13° S
SL-24 R/B 4.2 04:30:18 10° N 04:34:15 58° NW 04:34:15 58° NW
ASTEX 1 4.2 04:29:42 10° NNE 04:34:30 50° E 04:39:13 10° SSE
Cosmos 2082 4.1 04:34:21 42° W 04:35:15 46° NW 04:40:47 10° NNE
Cosmos 1536 3.1 04:32:47 10° NNW 04:35:59 54° NNW 04:35:59 54° NNW
IRS-1D 4.1 04:31:49 10° N 04:36:49 41° WNW 04:37:08 41° WNW
ADEOS II 2.7 04:36:22 10° NNE 04:41:33 54° E 04:46:04 13° S
Cosmos 1812 4.0 04:40:35 18° SSE 04:43:01 40° E 04:46:40 10° NNE
Cosmos 405 3.1 04:39:29 10° N 04:43:02 73° ENE 04:43:33 58° SE
USA 215 3.5 04:39:23 10° ESE 04:45:52 69° NNE 04:52:23 10° NW
ARIANE 5 R/B 3.1 04:41:29 10° N 04:46:14 38° WNW 04:46:38 37° WNW
Cosmos 2266 Rocket 4.4 04:40:47 10° N 04:47:10 65° ENE 04:53:32 10° SSE
Cosmos 1428 Rocket 4.4 04:42:12 10° NNW 04:48:17 67° W 04:54:07 11° S
Meteor 1-27 Rocket 3.7 04:47:19 42° SW 04:48:59 61° WNW 04:54:29 10° N
CZ-4B R/B 4.2 04:45:58 10° NNE 04:50:00 40° E 04:53:43 11° SSE
Resurs 1-4 Rocket 3.0 04:46:15 10° N 04:50:51 31° WNW 04:51:21 30° WNW
Cosmos 676 Rocket 4.2 04:49:34 25° S 04:52:38 71° ESE 04:57:57 10° NNE
Okean 1 Rocket 2.9 04:48:54 10° NNW 04:53:24 80° W 04:57:04 15° S
Lacrosse 5 rocket 2.1 04:53:33 35° NW 04:54:13 37° NNW 04:57:46 10° NE
PKM 3.5 04:55:09 62° WNW 04:55:24 66° NNW 04:59:47 10° ENE
ATLAS 5 CENTAUR R/B 4.2 04:53:01 10° NNW 04:57:35 25° NNE 05:02:32 10° ENE
Cosmos 2297 Rocket 3.1 04:56:21 29° WNW 04:57:51 34° NW 05:02:59 10° NNE
PSLV R/B 4.3 04:57:35 10° NNE 05:01:29 58° E 05:04:22 16° S
Cosmos 1500 3.6 04:59:32 10° N 05:03:17 63° E 05:07:00 10° SSE
Cosmos 1441 Rocket 3.2 05:02:06 30° S 05:03:51 78° E 05:07:39 10° NNE
MOS 1-B 4.3 05:00:58 10° NNE 05:06:49 86° ESE 05:12:26 11° SSW
Cosmos 2026 Rocket 4.5 05:01:27 10° NNW 05:06:56 36° W 05:08:58 28° SW
CZ-4C R/B 2.9 05:08:12 28° W 05:10:48 45° NW 05:16:56 10° NE
CZ-2D R/B 4.2 05:07:54 10° N 05:11:35 33° WNW 05:12:03 32° W
Cosmos 1674 Rocket 3.8 05:10:42 36° WSW 05:12:00 48° WNW 05:16:17 10° N
CZ-2D R/B 3.4 05:08:59 10° N 05:12:53 22° WNW 05:13:48 21° WNW
Cosmos 614 Rocket 4.2 05:08:41 13° S 05:13:12 67° ESE 05:18:18 10° NNE
Tiangong 1 2.6 05:18:27 20° SSE 05:18:27 20° SSE 05:20:13 10° SE
Cosmos 2084 3.3 05:18:00 27° WNW 05:19:43 47° SW 05:23:27 10° SSE
Cosmos 2279 Rocket 4.3 05:20:55 20° SW 05:24:59 46° WNW 05:30:58 10° N
Cosmos 1603 4.2 05:22:57 10° NW 05:28:04 36° WSW 05:33:10 10° S
CZ-2C R/B 4.1 05:24:21 10° SSE 05:28:59 70° ENE 05:33:45 10° N
Cosmos 1544 Rocket 3.8 05:29:24 10° N 05:33:44 71° ENE 05:38:04 10° SSE
PSLV R/B 3.4 05:29:52 10° N 05:34:05 74° WNW 05:38:15 10° SSW
Cosmos 44 Rocket 4.3 05:32:09 20° W 05:34:31 30° NW 05:38:42 10° NNE
Cosmos 407 Rocket 4.1 05:32:05 21° WSW 05:35:09 40° WNW 05:40:12 10° NNE
Cosmos 1975 Rocket 3.0 05:33:50 10° SSW 05:38:18 80° W 05:42:44 10° N
BREEZE-M DEB (TANK) 3.1 05:31:46 11° WNW 05:38:30 65° SSW 05:41:17 10° ESE
Cosmos 44 4.3 05:37:39 18° WNW 05:39:51 26° NW 05:43:33 10° NNE
Cosmos 1455 Rocket 3.2 05:37:40 10° N 05:42:02 77° E 05:46:22 10° SSE
Landsat 4 3.6 05:38:43 10° S 05:42:31 73° WSW 05:46:22 10° NNW
PAYLOAD B 4.2 05:38:30 10° NNE 05:44:05 85° WNW 05:49:35 10° SSW
Cosmos 1743 3.0 05:41:14 10° N 05:45:10 73° E 05:49:04 10° SSE
Cosmos 1666 3.4 05:41:28 10° N 05:45:11 56° ENE 05:48:54 10° SSE
Cosmos 1437 Rocket 2.9 05:44:22 10° NNW 05:48:08 49° W 05:51:57 10° S
Cosmos 2227 4.5 05:45:12 15° SW 05:49:47 50° NW 05:55:18 10° NNE
Cosmos 405 Rocket 4.0 05:49:46 18° WSW 05:51:31 24° WNW 05:54:47 10° NNW
Okean 3 4.4 05:49:05 16° WSW 05:51:45 29° WNW 05:55:31 10° N
Cosmos 1943 3.6 05:49:48 10° NW 05:55:08 42° WSW 06:00:26 10° S
GEOS 3 Rocket 3.7 05:50:36 10° SSE 05:55:44 61° SW 06:01:01 10° NW
Cosmos 1741 Rocket 4.0 05:50:52 10° SSW 05:56:05 90° WNW 06:01:23 10° NNE
Cosmos 2227 Rocket 4.1 05:56:11 10° WNW 05:59:23 15° NNW 06:02:36 10° N
SKYMED 2 4.4 05:55:42 10° SSE 05:59:57 57° ENE 06:04:14 10° N
Cosmos 1536 Rocket 4.1 05:59:16 10° S 06:03:32 62° E 06:07:51 10° NNE
ATLAS 3B R/B 4.2 05:58:06 10° S 06:04:51 40° ESE 06:11:22 10° NE
ISS -1.5 06:05:11 10° SW 06:05:21 10° SW 06:05:47 10° SW
Okean O Rocket 1.9 06:02:14 10° N 06:06:23 44° WNW 06:10:31 10° SW
Abrixas rocket 3.6 06:10:59 10° SW 06:13:54 31° SSE 06:16:49 10° E
Cosmos 2263 Rocket 2.2 06:08:22 10° SSW 06:14:03 76° WNW 06:19:48 10° NNE
Cosmos 468 Rocket 4.0 06:09:25 10° NNW 06:14:44 69° WSW 06:20:00 10° SSE
Meteor 1-28 Rocket 3.1 06:12:15 10° S 06:15:57 67° W 06:19:42 10° NNW
Cosmos 841 Rocket 4.2 06:11:42 10° NNW 06:16:50 61° ENE 06:21:58 10° SE
IRS-1C Rocket 4.2 06:13:30 10° N 06:18:40 56° WNW 06:23:49 10° SW
Cosmos 1975 3.7 06:15:17 10° NNW 06:18:50 29° W 06:22:23 10° SSW
Cosmos 1812 4.2 06:16:13 10° WSW 06:19:03 19° WNW 06:21:54 10° NNW
Cosmos 1850 Rocket 4.2 06:14:06 10° SW 06:19:22 59° WNW 06:24:39 10° NNE
Cosmos 1140 Rocket 4.2 06:16:05 10° WSW 06:20:50 35° NW 06:25:39 10° N
ADEOS II 3.1 06:16:40 10° N 06:20:58 26° WNW 06:25:17 10° WSW
Meteor PRIRODA 4.0 06:18:41 10° N 06:22:11 43° WNW 06:25:41 10° SW
S3M 4.4 06:16:28 10° S 06:22:41 73° E 06:29:01 10° NNE
Meteor 1-19 Rocket 4.4 06:18:59 10° SSW 06:24:53 86° WNW 06:30:44 10° NNE
CZ-4B R/B 4.2 06:21:31 10° N 06:24:55 23° WNW 06:28:12 10° WSW
Cosmos 332 Rocket 4.2 06:21:03 10° NW 06:25:35 41° WSW 06:30:04 10° S
NOAA 6 4.3 06:22:03 10° NNE 06:27:16 76° ESE 06:32:28 10° S
